sat.trackr.live / text

‹ back to catalog

STARLINK-11329 [DTC]

NORAD 61881 · 2024-204H

PAYLOAD ACTIVE UNKNOWN

§ Identity

Operator
Country
US
Launch date
2024-11-09
Launch site
AFWTR
Launch vehicle
Mass (kg)
RCS (m²)

Purposes: comms

External: N2YO · Heavens-Above · Gunter

§ Orbital elements

Epoch: 2026-09-21T20:22:10.226208Z

Period
91.74 min
Inclination
53.1594°
Eccentricity
0.0000951
Mean motion
15.69705151 rev/d
Perigee alt
359.1 km
Apogee alt
360.4 km
Semi-major
6,737.9 km
B*
-2.2497e-7
RAAN
109.2725°
Arg perigee
74.0018°
Mean anomaly
286.1105°
Rev number
10,772

§ Raw data

STARLINK-11329 [DTC]1 61881U 24204H   26264.84872947 -.00000616  00000+0 -22497-6 0  99992 61881  53.1594 109.2725 0000951  74.0018 286.1105 15.69705151107724

JSON: /api/v1/satellites/61881 · /tle

For live sub-satellite position, see the globe view (requires WebGL).

§ Visibility from observer

Set your observer location to see the next 7 days of passes ≥ 10°. The values pass through the URL so the page stays shareable.

No JS? Fill the form by hand. The geolocation button needs JavaScript.